Find OneWeb SL0589

NORAD ID: 54655 Int'l Des: 2022-166 Owner: ONEWEBN Country: UK Constellation: oneweb operational
LEOCIRCULARPOLARONEWEB_TYPE

Live Position

Loading 3D Globe...

About OneWeb SL0589

Description loading...

Upcoming Passes

Passes for default location (London). Set your location on the main map for personalized predictions.

Altitude History

Loading altitude history...

Two-Line Element Set

1 54655U 22166P 26120.88656981 -.00000027 00000-0 -97828-4 0 9993
2 54655 87.9220 253.3988 0002510 116.6363 243.5029 13.21824318165298
Epoch: Apr 30, 2026 • Age: 15 hours

Current Status

Altitude 1184.5 km
Velocity 7.27 km/s
Sub-Earth Point 52.70°N, 24.31°E
Launch Date Dec 8, 2022
Age 3.3 years
Type internet

Technical Details

Classification Payload
Mass 148.00 kg
Dry Mass 140.00 kg
Total Mass 148.00 kg
Length 1.30 m
Diameter 1.00 m
Span 5.00 m
Shape Trapezoid+2 pan
Manufacturer ONEWUS
Bus Type ARROW
Phase Status In Orbit
Owner/State ONEWEBN/UK

Most Searched